Weather History for Arlington, WA

Change the Weather History Date:

Saturday, October 25, 2014

  Actual Average Record
Temperature  
Mean Temperature 51 °F -  
Max Temperature 60 °F 57 °F 62 °F (1977)
Min Temperature 42 °F 46 °F 35 °F (2003)
Degree Days  
Heating Degree Days 14    
Growing Degree Days 1 (Base 50)    
Moisture  
Dew Point 47 °F    
Average Humidity 83    
Maximum Humidity 94    
Minimum Humidity 72    
Precipitation  
Precipitation 0.36 in - - ()
Sea Level Pressure  
Sea Level Pressure 29.49 in    
Wind  
Wind Speed 4 mph (ESE)    
Max Wind Speed 22 mph    
Max Gust Speed 33 mph    
Visibility 8 miles    
Events      
Averages and records for this station are not official NWS values.
T = Trace of Precipitation, MM = Missing Value Source: NWS Daily Summary

Daily Weather History Graph

Daily Weather History Graph

Search for Another Location

Airport:

Trip Planner

Search our weather history database for the weather conditions in past years. The results will help you decide how hot, cold, wet, or windy it might be!

Date:

Astronomy

Oct. 25, 2014 Rise Set
Actual Time 7:43 AM PDT 6:01 PM PDT
Civil Twilight 7:11 AM PDT 6:33 PM PDT
Nautical Twilight 6:34 AM PDT 7:09 PM PDT
Astronomical Twilight 5:58 AM PDT 7:45 PM PDT
Moon 9:33 AM PDT (10/25) 7:21 PM PDT (10/25)
Length of Visible Light 11h 22m
Length of Day
10h 17m
Waxing Crescent, 4% of the Moon is Illuminated
Oct 25
Waxing Crescent
Oct 30
First Quarter
Nov 6
Full
Nov 14
Last Quarter
Nov 22
New

Hourly Weather History & Observations

Time (PDT) Temp. Windchill Dew Point Humidity Pressure Visibility Wind Dir Wind Speed Gust Speed Precip Events Conditions
12:15 AM 48.2 °F - 44.6 °F 87% 29.76 in 10.0 mi Calm Calm - N/A   Overcast
12:35 AM 48.2 °F - 44.6 °F 87% 29.75 in 10.0 mi Calm Calm - N/A   Overcast
12:55 AM 50.0 °F - 44.6 °F 82% 29.73 in 10.0 mi Calm Calm - N/A   Overcast
1:15 AM 50.0 °F - 44.6 °F 82% 29.72 in 10.0 mi NW 5.8 mph - N/A   Overcast
1:35 AM 48.2 °F - 44.6 °F 87% 29.71 in 10.0 mi North 3.5 mph - N/A   Overcast
1:55 AM 50.0 °F - 44.6 °F 82% 29.70 in 10.0 mi North 3.5 mph - N/A   Overcast
2:15 AM 50.0 °F - 44.6 °F 82% 29.67 in 10.0 mi North 5.8 mph - N/A   Overcast
2:35 AM 50.0 °F - 44.6 °F 82% 29.66 in 10.0 mi NNW 4.6 mph - N/A   Overcast
2:55 AM 50.0 °F - 44.6 °F 82% 29.65 in 10.0 mi NW 3.5 mph - N/A   Overcast
3:15 AM 50.0 °F - 44.6 °F 82% 29.63 in 10.0 mi Calm Calm - N/A   Overcast
3:35 AM 48.2 °F - 44.6 °F 87% 29.62 in 10.0 mi Calm Calm - N/A   Mostly Cloudy
3:55 AM 48.2 °F - 44.6 °F 87% 29.60 in 10.0 mi Calm Calm - N/A   Mostly Cloudy
4:15 AM 48.2 °F - 44.6 °F 87% 29.58 in 1.8 mi Calm Calm - N/A   Mostly Cloudy
4:35 AM 46.4 °F - 44.6 °F 93% 29.57 in 0.5 mi Calm Calm - N/A   Mostly Cloudy
4:55 AM 44.6 °F - 42.8 °F 93% 29.55 in 0.8 mi Calm Calm - N/A   Mostly Cloudy
5:15 AM 42.8 °F - 39.2 °F 87% 29.54 in 0.2 mi Calm Calm - N/A   Overcast
5:35 AM 44.6 °F - 41.0 °F 87% 29.53 in 0.5 mi Calm Calm - N/A   Mostly Cloudy
5:55 AM 44.6 °F - 39.2 °F 81% 29.51 in 0.5 mi Calm Calm - N/A   Overcast
6:15 AM 44.6 °F 42.2 °F 42.8 °F 93% 29.49 in 0.5 mi North 4.6 mph - N/A   Overcast
6:35 AM 42.8 °F 40.1 °F 39.2 °F 87% 29.48 in 1.0 mi WNW 4.6 mph - N/A   Mostly Cloudy
6:55 AM 42.8 °F - 37.4 °F 81% 29.48 in 1.0 mi Calm Calm - N/A   Mostly Cloudy
7:15 AM 42.8 °F 41.1 °F 39.2 °F 87% 29.48 in 1.0 mi SE 3.5 mph - N/A   Overcast
7:35 AM 44.6 °F - 39.2 °F 81% 29.47 in 10.0 mi Calm Calm - N/A   Overcast
7:55 AM 46.4 °F 41.9 °F 42.8 °F 87% 29.52 in 10.0 mi SW 9.2 mph - N/A   Overcast
8:15 AM 46.4 °F 43.5 °F 42.8 °F 87% 29.54 in 10.0 mi SSE 5.8 mph - N/A   Overcast
8:35 AM 46.4 °F 42.9 °F 44.6 °F 93% 29.57 in 10.0 mi South 6.9 mph - N/A   Overcast
8:55 AM 48.2 °F - 44.6 °F 87% 29.57 in 9.0 mi ESE 5.8 mph - N/A   Overcast
9:15 AM 50.0 °F - 46.4 °F 87% 29.57 in 10.0 mi South 4.6 mph - N/A   Overcast
9:35 AM 51.8 °F - 46.4 °F 82% 29.55 in 10.0 mi ESE 13.8 mph 19.6 mph 0.01 in   Overcast
9:55 AM 51.8 °F - 46.4 °F 82% 29.54 in 10.0 mi SE 8.1 mph - 0.01 in   Overcast
10:15 AM 53.6 °F - 48.2 °F 82% 29.53 in 10.0 mi South 3.5 mph - 0.01 in   Overcast
10:35 AM 53.6 °F - 51.8 °F 94% 29.50 in 10.0 mi NW 6.9 mph - 0.01 in   Overcast
10:55 AM 55.4 °F - 50.0 °F 82% 29.48 in 10.0 mi NE 5.8 mph - 0.01 in   Partly Cloudy
11:15 AM 57.2 °F - 50.0 °F 77% 29.44 in 10.0 mi NE 3.5 mph - N/A   Clear
11:35 AM 59.0 °F - 53.6 °F 82% 29.44 in 10.0 mi WNW 6.9 mph - N/A   Clear
11:55 AM 60.8 °F - 51.8 °F 72% 29.42 in 10.0 mi NNE 9.2 mph - N/A   Scattered Clouds
12:15 PM 59.0 °F - 51.8 °F 77% 29.42 in 10.0 mi Calm Calm - N/A   Overcast
12:35 PM 60.8 °F - 51.8 °F 72% 29.41 in 10.0 mi NW 3.5 mph - N/A   Overcast
12:55 PM 60.8 °F - 51.8 °F 72% 29.37 in 10.0 mi North 5.8 mph - N/A   Overcast
1:15 PM 60.8 °F - 51.8 °F 72% 29.35 in 10.0 mi NNE 8.1 mph - N/A   Mostly Cloudy
1:35 PM 60.8 °F - 51.8 °F 72% 29.37 in 10.0 mi Calm Calm - N/A   Mostly Cloudy
1:55 PM 60.8 °F - 51.8 °F 72% 29.36 in 10.0 mi Calm Calm - N/A   Overcast
2:15 PM 60.8 °F - 53.6 °F 77% 29.34 in 10.0 mi North 3.5 mph - N/A   Overcast
2:35 PM 59.0 °F - 53.6 °F 82% 29.34 in 10.0 mi Calm Calm - N/A   Overcast
2:55 PM 57.2 °F - 53.6 °F 88% 29.33 in 10.0 mi North 6.9 mph - 0.01 in   Overcast
3:15 PM 57.2 °F - 51.8 °F 82% 29.32 in 10.0 mi Calm Calm - N/A   Overcast
3:35 PM 57.2 °F - 51.8 °F 82% 29.32 in 10.0 mi NNW 3.5 mph - N/A   Overcast
3:55 PM 55.4 °F - 51.8 °F 88% 29.33 in 10.0 mi North 3.5 mph - 0.02 in   Overcast
4:15 PM 57.2 °F - 51.8 °F 82% 29.33 in 6.0 mi ENE 4.6 mph - 0.03 in   Overcast
4:35 PM 55.4 °F - 51.8 °F 88% 29.32 in 5.0 mi ENE 3.5 mph - 0.06 in   Overcast
4:55 PM 55.4 °F - 51.8 °F 88% 29.30 in 6.0 mi East 9.2 mph - 0.07 in   Overcast
5:15 PM 55.4 °F - 50.0 °F 82% 29.28 in 9.0 mi East 11.5 mph 16.1 mph 0.01 in   Overcast
5:35 PM 55.4 °F - 50.0 °F 82% 29.27 in 9.0 mi ESE 9.2 mph 19.6 mph 0.02 in   Overcast
5:55 PM 55.4 °F - 50.0 °F 82% 29.27 in 10.0 mi East 11.5 mph 16.1 mph 0.03 in   Overcast
6:15 PM 55.4 °F - 50.0 °F 82% 29.28 in 10.0 mi SSE 9.2 mph - N/A   Overcast
6:35 PM 55.4 °F - 50.0 °F 82% 29.27 in 10.0 mi ESE 16.1 mph - 0.02 in   Overcast
6:55 PM 55.4 °F - 50.0 °F 82% 29.27 in 10.0 mi SE 21.9 mph - 0.02 in   Overcast
7:15 PM 57.2 °F - 50.0 °F 77% 29.28 in 10.0 mi SE 21.9 mph 27.6 mph N/A   Overcast
7:35 PM 57.2 °F - 50.0 °F 77% 29.30 in 10.0 mi SSE 23.0 mph 29.9 mph N/A   Overcast
7:55 PM 57.2 °F - 50.0 °F 77% 29.32 in 10.0 mi South 18.4 mph 33.4 mph 0.01 in   Mostly Cloudy
8:15 PM 57.2 °F - 51.8 °F 82% 29.35 in 10.0 mi SSW 15.0 mph 18.4 mph 0.06 in   Overcast
8:35 PM 55.4 °F - 51.8 °F 88% 29.40 in 7.0 mi SW 15.0 mph 28.8 mph 0.12 in   Overcast
8:55 PM 53.6 °F - 50.0 °F 88% 29.46 in 10.0 mi WSW 9.2 mph 18.4 mph 0.12 in   Overcast
9:15 PM 53.6 °F - 48.2 °F 82% 29.50 in 10.0 mi SW 10.4 mph - 0.01 in   Overcast
9:35 PM 53.6 °F - 48.2 °F 82% 29.54 in 10.0 mi West 5.8 mph 16.1 mph 0.04 in   Overcast
9:55 PM 53.6 °F - 46.4 °F 77% 29.58 in 10.0 mi South 4.6 mph - 0.05 in   Overcast
10:15 PM 53.6 °F - 46.4 °F 77% 29.61 in 9.0 mi ESE 4.6 mph - 0.01 in   Overcast
10:35 PM 51.8 °F - 46.4 °F 82% 29.64 in 10.0 mi SE 5.8 mph - 0.01 in   Mostly Cloudy
10:55 PM 51.8 °F - 46.4 °F 82% 29.67 in 10.0 mi South 10.4 mph - 0.01 in   Mostly Cloudy
11:15 PM 51.8 °F - 46.4 °F 82% 29.70 in 10.0 mi SSE 8.1 mph - N/A   Mostly Cloudy
11:35 PM 51.8 °F - 46.4 °F 82% 29.72 in 10.0 mi South 4.6 mph - N/A   Overcast
11:55 PM 51.8 °F - 46.4 °F 82% 29.73 in 10.0 mi South 5.8 mph - N/A   Overcast